User: anonymous   Login
Location: Caltech
(34.1382°N, 118.1253°W)
Time: 00:15:09
(UTC-07:00)
Language:

Cosmos 1943 Rocket - Orbit

View from above orbital plane
View from above orbital plane
View from above satellite
View from above satellite

Ground track
Ground track

The orbit data is extracted from the following two-line orbital elements,

1 19120U 88039B   16145.85866309 -.00000135  00000-0 -41671-4 0  9997
2 19120  71.0159  65.4242 0019927  60.6824 299.6289 14.19147252451297
Epoch (UTC): 24 May 2016 20:36:28
Eccentricity: 0.0019927
inclination: 71.0159°
perigee height: 814 km
apogee height: 842 km
right ascension of ascending node: 65.4242°
argument of perigee: 60.6824°
revolutions per day: 14.19147252
mean anomaly at epoch: 299.6289°
orbit number at epoch: 45129

The dashed part of the orbit path shows where the satellite is in the earth's shadow,  

DLR